EW9479 Weather Reports


Display with metric or nautical units.
time (UTC)temp
F
wind
direction
speed
MPH
gust
MPH
rain 1hr
in
rain 24hr
in
rain mn
in
humidity
%
barometer
mb
20260831021545 81 0 0.0 1.0 0.00 0.00 0.00 77 1018.6
20260831020047 82 74 0.0 1.0 0.00 0.00 0.00 76 1018.6
20260831014544 82 0 0.0 0.0 0.00 0.00 0.00 74 1018.7
20260831013047 83 0 0.0 1.0 0.00 0.00 0.00 73 1018.4
20260831011548 83 0 0.0 0.0 0.00 0.00 0.00 73 1018.3
20260831010047 84 0 0.0 0.0 0.00 0.00 0.00 71 1018.2
20260831004545 85 0 0.0 1.0 0.00 0.00 0.00 71 1018.0
20260831003051 87 0 0.0 0.0 0.00 0.00 0.00 68 1018.0
20260831001546 89 0 0.0 1.0 0.00 0.00 0.00 64 1018.0
20260831000046 91 0 0.0 1.0 0.00 0.00 0.00 61 1017.9
20260830234601 92 68 0.0 4.0 0.00 0.00 0.00 59 1017.8
20260830233045 92 130 0.0 3.0 0.00 0.00 0.00 58 1017.8
20260830231549 92 66 0.0 3.0 0.00 0.00 0.00 59 1017.9
20260830230047 92 100 0.0 4.0 0.00 0.00 0.00 59 1017.8
20260830224601 93 158 1.0 3.0 0.00 0.00 0.00 58 1017.8
20260830223045 93 238 2.0 7.0 0.00 0.00 0.00 57 1017.8
20260830221545 94 124 2.0 6.0 0.00 0.00 0.00 56 1017.8
20260830220046 94 228 2.0 6.0 0.00 0.00 0.00 54 1017.9
20260830214623 95 208 3.0 8.0 0.00 0.00 0.00 55 1017.9
20260830213049 94 215 2.0 8.0 0.00 0.00 0.00 56 1018.0
20260830211553 94 211 2.0 9.0 0.00 0.00 0.00 56 1018.1
20260830210050 94 96 2.0 6.0 0.00 0.00 0.00 57 1018.1
20260830204545 94 210 4.0 11.0 0.00 0.00 0.00 57 1018.3
20260830203052 93 203 3.0 7.0 0.00 0.00 0.00 58 1018.3
20260830201548 92 225 2.0 6.0 0.00 0.00 0.00 59 1018.4
20260830200052 93 200 3.0 9.0 0.00 0.00 0.00 58 1018.6
20260830194545 93 214 6.0 10.0 0.00 0.00 0.00 58 1018.9
20260830193122 94 240 2.0 5.0 0.00 0.00 0.00 58 1019.2
20260830191546 93 137 1.0 7.0 0.00 0.00 0.00 57 1019.3
20260830190047 94 200 5.0 11.0 0.00 0.00 0.00 55 1019.4
20260830184548 92 233 3.0 6.0 0.00 0.00 0.00 58 1019.5
20260830183046 92 195 4.0 10.0 0.00 0.00 0.00 58 1019.6
20260830181546 92 190 6.0 13.0 0.00 0.00 0.00 59 1019.7
20260830180058 91 134 3.0 9.0 0.00 0.00 0.00 59 1019.8
20260830174551 92 200 5.0 10.0 0.00 0.00 0.00 60 1020.0
20260830173104 92 217 1.0 11.0 0.00 0.00 0.00 60 1020.1
20260830171546 90 212 4.0 10.0 0.00 0.00 0.00 63 1020.2
20260830170056 89 188 4.0 8.0 0.00 0.00 0.00 64 1020.4
20260830164550 89 200 7.0 12.0 0.00 0.00 0.00 65 1020.5
20260830163046 89 129 3.0 12.0 0.00 0.00 0.00 65 1020.6
20260830161545 89 180 5.0 11.0 0.00 0.00 0.00 65 1020.7
20260830160044 89 209 2.0 8.0 0.00 0.00 0.00 68 1020.7
20260830154547 88 223 2.0 10.0 0.00 0.00 0.00 70 1020.7
20260830153047 87 198 3.0 8.0 0.00 0.00 0.00 70 1020.8
20260830151545 86 215 3.0 7.0 0.00 0.00 0.00 71 1020.8
20260830150051 85 210 3.0 8.0 0.00 0.00 0.00 73 1020.8
20260830144557 84 59 3.0 8.0 0.00 0.00 0.00 74 1020.7
20260830143046 83 204 1.0 6.0 0.00 0.00 0.00 75 1020.8
20260830141546 81 0 2.0 7.0 0.00 0.00 0.00 77 1020.8
20260830140057 80 209 1.0 3.0 0.00 0.00 0.00 78 1021.0
20260830134549 79 207 3.0 5.0 0.00 0.00 0.00 79 1021.0
20260830133050 77 210 1.0 2.0 0.00 0.00 0.00 81 1020.9
20260830131545 75 92 0.0 2.0 0.00 0.00 0.00 85 1020.9
20260830130045 72 0 0.0 0.0 0.00 0.00 0.00 89 1020.7
20260830124553 70 0 0.0 0.0 0.00 0.00 0.00 92 1020.7
20260830123046 69 0 0.0 0.0 0.00 0.00 0.00 93 1020.6
20260830121546 68 0 0.0 0.0 0.00 0.00 0.00 93 1020.4
20260830120044 68 0 0.0 0.0 0.00 0.00 0.00 93 1020.3
20260830114608 67 0 0.0 0.0 0.00 0.00 0.00 93 1019.9
20260830113047 67 0 0.0 0.0 0.00 0.00 0.00 93 1019.6
20260830111546 67 0 0.0 0.0 0.00 0.00 0.00 92 1019.6
20260830110045 67 0 0.0 0.0 0.00 0.00 0.00 92 1019.5
20260830104605 67 0 0.0 0.0 0.00 0.00 0.00 92 1019.3
20260830103052 67 0 0.0 0.0 0.00 0.00 0.00 92 1019.3
20260830101545 67 0 0.0 0.0 0.00 0.00 0.00 92 1019.2
20260830100045 67 0 0.0 0.0 0.00 0.00 0.00 92 1019.2
20260830094546 67 0 0.0 0.0 0.00 0.00 0.00 92 1019.3
20260830093056 67 0 0.0 0.0 0.00 0.00 0.00 91 1019.2
20260830091554 68 0 0.0 0.0 0.00 0.00 0.00 91 1019.3
20260830090053 68 0 0.0 0.0 0.00 0.00 0.00 91 1019.2
20260830084552 68 0 0.0 0.0 0.00 0.00 0.00 91 1019.1
20260830083051 68 0 0.0 0.0 0.00 0.00 0.00 91 1019.3
20260830081545 68 0 0.0 0.0 0.00 0.00 0.00 91 1019.2
20260830080045 68 0 0.0 0.0 0.00 0.00 0.00 91 1019.3
20260830074555 68 0 0.0 0.0 0.00 0.00 0.00 91 1019.4
20260830073046 68 153 0.0 0.0 0.00 0.00 0.00 90 1019.5
20260830071622 69 0 0.0 0.0 0.00 0.00 0.00 90 1019.5
20260830070056 69 0 0.0 1.0 0.00 0.00 0.00 89 1019.5
20260830064545 69 0 0.0 0.0 0.00 0.00 0.00 89 1019.6
20260830063046 69 0 0.0 0.0 0.00 0.00 0.00 88 1019.7
20260830061559 70 0 0.0 0.0 0.00 0.00 0.00 88 1019.7
20260830060054 70 0 0.0 0.0 0.00 0.00 0.00 87 1019.7
20260830054545 70 0 0.0 0.0 0.00 0.00 0.00 87 1019.7
20260830053045 71 0 0.0 0.0 0.00 0.00 0.00 86 1019.7
20260830051548 72 0 0.0 0.0 0.00 0.00 0.00 85 1019.7
20260830050044 73 0 0.0 1.0 0.00 0.00 0.00 84 1019.6
20260830044610 74 0 0.0 1.0 0.00 0.00 0.00 82 1019.4
20260830043049 75 77 0.0 1.0 0.00 0.00 0.00 80 1019.4
20260830041551 76 30 0.0 2.0 0.00 0.00 0.00 79 1019.4
20260830040100 76 0 0.0 2.0 0.00 0.00 0.00 79 1019.3
20260830034552 74 101 0.0 2.0 0.00 0.00 0.00 81 1019.3
20260830033055 73 0 0.0 1.0 0.00 0.00 0.00 81 1019.2
20260830031545 73 0 0.0 1.0 0.00 0.00 0.00 82 1019.2
20260830030042 73 0 0.0 4.0 0.00 0.00 0.00 81 1019.2
20260830024606 73 0 0.0 0.0 0.00 0.00 0.00 81 1019.1
20260830023045 74 0 0.0 0.0 0.00 0.00 0.00 79 1018.9